Kingshill, VI

10:18 AM AST on August 29, 2016 (GMT -0400)
Henry E Rohlsen

Weather History for TISX - February, 2014

Change the Weather History Date:

Friday, February 7, 2014

  Actual Average Record
Temperature  
Mean Temperature 80 °F 78 °F  
Max Temperature 86 °F 84 °F 89 °F (1973)
Min Temperature 74 °F 72 °F 66 °F (2012)
Degree Days  
Heating Degree Days 0 0  
Month to date heating degree days 0 0  
Since 1 July heating degree days 0 0  
Cooling Degree Days 15 13  
Month to date cooling degree days 101 91  
Year to date cooling degree days 542 500  
Growing Degree Days 28 (Base 50)    
Moisture  
Dew Point 69 °F    
Average Humidity 69    
Maximum Humidity 87    
Minimum Humidity 51    
Precipitation  
Precipitation T in 0.06 in 0.62 in (1973)
Month to date precipitation 0.34 0.45  
Year to date precipitation 1.47 2.59  
Sea Level Pressure  
Sea Level Pressure 30.04 in    
Wind  
Wind Speed 11 mph (ENE)    
Max Wind Speed 23 mph    
Max Gust Speed 30 mph    
Visibility 10 miles    
Events Rain    
T = Trace of Precipitation, MM = Missing Value Source: NWS Daily Summary

Daily Weather History Graph

Daily Weather History Graph

Search for Another Location

Airport or City:

Trip Planner

Search our weather history database for the weather conditions in past years. The results will help you decide how hot, cold, wet, or windy it might be!

Date:

Astronomy

Feb. 07, 2014 Rise Set
Actual Time 6:49 AM AST 6:17 PM AST
Civil Twilight 6:27 AM AST 6:39 PM AST
Nautical Twilight 6:01 AM AST 7:05 PM AST
Astronomical Twilight 5:35 AM AST 7:31 PM AST
Moon 12:34 PM AST (2/7) 12:55 AM AST (2/7)
Length of Visible Light 12h 12m
Length of Day
11h 27m
First Quarter, 58% of the Moon is Illuminated
Feb 7
First Quarter
Feb 14
Full
Feb 22
Last Quarter
Mar 1
New
Mar 8
First Quarter

Hourly Weather History & Observations

Time (AST) Temp. Heat Index Dew Point Humidity Pressure Visibility Wind Dir Wind Speed Gust Speed Precip Events Conditions
12:53 AM 73.9 °F - 69.1 °F 85% 30.05 in 10.0 mi NE 5.8 mph - N/A   Scattered Clouds
1:53 AM 75.0 °F - 70.0 °F 84% 30.04 in 10.0 mi NE 6.9 mph - N/A   Clear
2:53 AM 73.9 °F - 70.0 °F 87% 30.03 in 10.0 mi NE 6.9 mph - N/A   Scattered Clouds
3:05 AM 75.2 °F - 69.8 °F 83% 30.02 in 10.0 mi ENE 8.1 mph - N/A   Mostly Cloudy
3:14 AM 75.2 °F - 69.8 °F 83% 30.02 in 10.0 mi East 10.4 mph - N/A   Scattered Clouds
3:51 AM 75.2 °F - 69.8 °F 83% 30.02 in 10.0 mi ENE 8.1 mph - N/A   Mostly Cloudy
4:09 AM 75.2 °F - 69.8 °F 83% 30.02 in 10.0 mi East 8.1 mph - N/A   Scattered Clouds
4:53 AM 75.9 °F - 71.1 °F 85% 30.01 in 10.0 mi East 10.4 mph - N/A   Scattered Clouds
5:00 AM 75.2 °F - 71.6 °F 89% 30.01 in 10.0 mi ENE 9.2 mph - N/A   Mostly Cloudy
5:21 AM 75.2 °F - 71.6 °F 89% 30.02 in 9.0 mi ENE 6.9 mph - N/A Rain Light Rain
5:32 AM 75.2 °F - 71.6 °F 89% 30.02 in 10.0 mi East 9.2 mph - 0.00 in   Mostly Cloudy
6:07 AM 75.2 °F - 71.6 °F 89% 30.03 in 10.0 mi East 10.4 mph - N/A   Partly Cloudy
6:53 AM 75.0 °F - 69.1 °F 82% 30.04 in 10.0 mi East 9.2 mph - N/A   Partly Cloudy
7:53 AM 78.1 °F - 70.0 °F 76% 30.06 in 10.0 mi East 9.2 mph - N/A   Partly Cloudy
8:53 AM 81.0 °F 84.4 °F 70.0 °F 69% 30.08 in 10.0 mi East 15.0 mph - N/A   Scattered Clouds
9:53 AM 82.9 °F 87.0 °F 70.0 °F 65% 30.10 in 10.0 mi East 17.3 mph 23.0 mph N/A   Partly Cloudy
11:53 AM 84.9 °F 89.4 °F 70.0 °F 61% 30.08 in 10.0 mi ESE 17.3 mph 26.5 mph N/A   Unknown
12:53 PM 81.0 °F 84.4 °F 70.0 °F 69% 30.06 in 10.0 mi ENE 13.8 mph 25.3 mph N/A   Scattered Clouds
1:53 PM 84.9 °F 88.8 °F 69.1 °F 59% 30.04 in 10.0 mi ESE 23.0 mph 28.8 mph N/A   Scattered Clouds
2:53 PM 84.9 °F 86.6 °F 64.9 °F 51% 30.02 in 10.0 mi East 20.7 mph 27.6 mph N/A   Scattered Clouds
3:53 PM 84.0 °F 86.5 °F 66.9 °F 56% 30.01 in 10.0 mi ENE 13.8 mph - N/A   Partly Cloudy
4:53 PM 81.0 °F 83.8 °F 68.0 °F 65% 30.02 in 10.0 mi East 11.5 mph - N/A   Scattered Clouds
5:53 PM 79.0 °F - 68.0 °F 69% 30.04 in 10.0 mi ENE 12.7 mph - N/A   Scattered Clouds
6:53 PM 77.0 °F - 68.0 °F 74% 30.04 in 10.0 mi ENE 10.4 mph - N/A   Partly Cloudy
7:53 PM 78.1 °F - 68.0 °F 71% 30.06 in 10.0 mi ENE 9.2 mph - N/A   Scattered Clouds
8:53 PM 77.0 °F - 68.0 °F 74% 30.08 in 10.0 mi ENE 11.5 mph - N/A   Clear
9:53 PM 77.0 °F - 68.0 °F 74% 30.08 in 10.0 mi ENE 8.1 mph - N/A   Clear
10:53 PM 75.9 °F - 68.0 °F 76% 30.09 in 10.0 mi ENE 8.1 mph - N/A   Partly Cloudy
11:53 PM 75.9 °F - 68.0 °F 76% 30.07 in 10.0 mi ENE 10.4 mph - N/A   Clear